Regional Weather Roundup
Issued by NWS

Home | Current Version | Previous Version | Text Only | Print | Product List | Glossary On
Versions: 1 2 3 4 5 6 7 8 9 10 11 12 13 14 15 16 17 18 19 20 21 22 23 24 25 26 27 28 29 30 31 32 33 34 35 36 37 38 39 40 41 42 43 44 45 46 47 48 49 50
000
ASUS43 KMKX 080900
RWRWI

WISCONSIN REGIONAL WEATHER ROUNDUP
NATIONAL WEATHER SERVICE MILWAUKEE/SULLIVAN WI
300 AM CST THU DEC 08 2016

NOTE: "FAIR" INDICATES FEW OR NO CLOUDS BELOW 12,000 FEET WITH NO
SIGNIFICANT WEATHER AND/OR OBSTRUCTIONS TO VISIBILITY.

WIZ001-002-006>008-014>016-023>028-081000-
NORTHWEST WISCONSIN

CITY           SKY/WX    TMP DP  RH WIND       PRES   REMARKS
SUPERIOR ARPT  CLOUDY    24  19  82 NW7       30.05R WCI  16
ASHLAND        LGT SNOW  19  16  88 W10       29.99R FOG     WCI   7
HAYWARD        LGT SNOW  17  13  84 VRB5      30.01R FOG     WCI  10
SIREN          LGT SNOW  17  14  86 W10G16    30.07R WCI   5
CUMBERLAND     FLURRIES  16  12  86 W13       30.05R WCI   2
RICE LAKE      FLURRIES  16  12  84 W10       30.07S WCI   3
CHETEK         FLURRIES  15  10  82 W8        30.07R WCI   4
LADYSMITH      LGT SNOW  17  13  85 W10       30.03S WCI   4
EAU CLAIRE     NOT AVBL
MENOMONIE      PTCLDY    17  12  80 W14       30.11S WCI   3
NEW RICHMOND   LGT SNOW  16  12  84 W10       30.12R WCI   3
OSCEOLA        FLURRIES  17  13  84 W9        30.16R WCI   6
$$

WIZ003>005-009-010-017-018-081000-
NORTH CENTRAL WISCONSIN

CITY           SKY/WX    TMP DP  RH WIND       PRES   REMARKS
MANITOWISH WTR FLURRIES  15  13  93 W13G18    29.90R WCI   1
ARBOR VITAE    FLURRIES  17  13  85 W8        29.91R WCI   6
WOODRUFF       FLURRIES  17  13  85 W8        29.91R WCI   6
RHINELANDER    LGT SNOW  14  10  84 W15       29.92S FOG     WCI  -1
EAGLE RIVER    LGT SNOW  15  10  80 W10       29.88S WCI   2
LAND O LAKES   FLURRIES  16  12  85 W7        29.88R WCI   6
PHILLIPS       FLURRIES  14  12  89 W8        29.96R WCI   3
TOMAHAWK       FLURRIES  14   9  82 W9        29.96R WCI   1
MEDFORD        LGT SNOW  13   9  84 W10G20    29.99R WCI   0
MERRILL        FLURRIES  15  10  81 W13       29.99S WCI   1
$$

WIZ029-030-035-036-043>047-081000-
CENTRAL WISCONSIN

CITY           SKY/WX    TMP DP  RH WIND       PRES   REMARKS
WAUSAU         FLURRIES  14   9  80 W15       30.00R WCI  -1
MOSINEE        FLURRIES  14  12  92 W15       30.02R WCI  -1
MARSHFIELD     LGT SNOW  14   8  77 W14G24    30.03R WCI  -1
STEVENS POINT  FLURRIES  15   9  76 W9        30.04R WCI   3
WAUPACA        FLURRIES  20  12  71 W15       30.05S WCI   7
WAUTOMA        FLURRIES  18  13  80 W13       30.08R WCI   5
WISC RAPIDS    MOCLDY    16  10  77 W13G20    30.07R WCI   2
CAMP DOUGLAS   NOT AVBL
$$

WIZ011>013-019>022-031-037>040-048>050-081000-
NORTHEAST WISCONSIN

CITY           SKY/WX    TMP DP  RH WIND       PRES   REMARKS
ANTIGO         LGT SNOW  13   9  83 W14G20    29.95S WCI  -2
SHAWANO        MOCLDY    20  11  67 W14       30.01F WCI   7
OCONTO         CLOUDY    20  10  64 W13G23    30.00R WCI   8
STURGEON BAY   FLURRIES  21  12  68 W16G25    29.97S WCI   7
GREEN BAY      FLURRIES  22  13  68 W17       30.01S WCI   8
MANITOWOC      NOT AVBL
APPLETON       CLOUDY    19  10  68 W17G29    30.01S WCI   4
CLINTONVILLE   FLURRIES  19  10  68 W14       30.02F WCI   6
OSHKOSH        CLOUDY    20  11  68 W10G23    30.04S WCI   9
$$

WIZ032>034-041-042-053>061-081000-
SOUTHWEST WISCONSIN

CITY           SKY/WX    TMP DP  RH WIND       PRES   REMARKS
LA CROSSE      FLURRIES  18  10  71 W15       30.17S WCI   4
SPARTA         FLURRIES  16  11  78 W9        30.14R WCI   5
VIROQUA        CLOUDY    13   8  79 W10G17    30.12S WCI   0
BOSCOBEL       CLOUDY    16   6  65 W13G23    30.21R WCI   2
PRAIRIE DU CHI CLOUDY    15   5  67 W10G16    30.24R WCI   2
PLATTEVILLE    PTCLDY    15   9  79 W15G23    30.18R WCI  -1
$$

WIZ056-057-062-063-064-067-068-081000-
SOUTH CENTRAL WISCONSIN

CITY           SKY/WX    TMP DP  RH WIND       PRES   REMARKS
REEDSBURG      FLURRIES  17  10  75 W14       30.12R WCI   3
BARABOO/DELLS  FLURRIES  18  11  74 W10G18    30.10R WCI   6
LONE ROCK      NOT AVBL
MINERAL POINT  FLURRIES  18  10  73 W21       30.14R WCI   1
MADISON        CLOUDY    18   8  65 MISG      30.11S
MIDDLETON      CLOUDY    19  11  71 W16G25    30.12S WCI   4
WATERTOWN      CLOUDY    20  12  72 W14G23    30.09S WCI   7
MONROE         CLOUDY    18  10  73 W24G30    30.13R WCI   0
JANESVILLE     FLURRIES  23  14  68 W12G21    30.13S WCI  12
$$

WIZ051-052-058>065-066-070>072-081000-
SOUTHEAST WISCONSIN

CITY           SKY/WX    TMP DP  RH WIND       PRES   REMARKS
MILWAUKEE      FLURRIES  23  13  65 W13       30.09S WCI  11
WAUKESHA       CLOUDY    19  12  73 W18       30.09S WCI   4
MILWAUKEE/TIMM CLOUDY    21  10  63 W17G23    30.09S WCI   7
RACINE         CLOUDY    22  11  62 W13G22    30.12R WCI  10
BURLINGTON     CLOUDY    21  13  72 W17       30.11S WCI   7
KENOSHA        CLOUDY    22  13  68 W18G26    30.11R WCI   7
FOND DU LAC    FLURRIES  20  10  65 W12G21    30.06R WCI   8
SHEBOYGAN      CLOUDY    21  12  68 W16       30.04S WCI   7
WEST BEND      CLOUDY    21  12  68 W10G16    30.06R WCI  10
JUNEAU         CLOUDY    19  11  72 W13       30.08S WCI   6
$$

LSZ147-162-081000-
LAKE SUPERIOR

STATION/POSITION TIME  TEMP    WIND        PRES    WAVE
                       AIR SEA DIR/SP/G            HT/PER
                 (UTC) (F)     (DEG/KT/KT) (MB)    (FT/S)
DEVILS ISLAND    0800   28     340/ 22/ 27 1015.1R
PORT WING        0840   28     330/ 19/ 23 1016.3R
SAXON HARBOR     0840   21     210/ 10/ 15 1014.2S
$$

LMZ867-665-643>646-081000-
LAKE MICHIGAN

STATION/POSITION TIME  TEMP    WIND        PRES    WAVE
                       AIR SEA DIR/SP/G            HT/PER
                 (UTC) (F)     (DEG/KT/KT) (MB)    (FT/S)
CHAMBERS ISLAND  0830   22     230/ 12/ 20 1013.5S
NORTHPORT PIER   0840   24     250/  9/ 15 1013.2S
SISTER BAY       0751   25     300/ 22/ 28   N/A
ALGOMA LAKESHORE 0821          320/ 10/ 13   N/A
KEWAUNEE LAKESHO 0830   22     310/ 13/ 20 1015.3R
SHEBOYGAN LAKESH 0800   22     260/ 13/ 15 1018.1S
PORT WASHINGTON  0830   22     280/  8/ 18 1019.3S
MILWAUKEE LAKESH 0830   23     290/ 12/ 16   N/A
KENOSHA   LAKESH 0800   23     280/ 14/ 28 1019.6
$$

TC  - TEMPERATURE IN CELSIUS
VSB - VISIBILITY IN STATUTE MILES
WCI - WIND CHILL INDEX
HX  - HEAT INDEX




USA.gov is the U.S. government's official web portal to all federal, state and local government web resources and services.